カタログに戻る

FENGYUN 1C DEB

運用中PO
NORAD 31644·DEBRIS·🇨🇳 China

打ち上げ May 10, 1999 から Taiyuan Satellite Launch Center

Loading…

次のパス (今後24時間)

TLE

最新Source: Space-Track

元期: Sep 13, 2026, 14:03 UTC

1 31644U 99025CBA 26256.58562882  .00005267  00000-0  73210-3 0  9994
2 31644  98.6476 168.1359 0148705  44.3075  75.0057 14.70936264750818

AllMySatでFENGYUN 1C DEBをリアルタイム追跡

Download on the App Store